Location: *
(31.7866°N, 35.2244°E)
Time: 13:26:11
(UTC+00:00)

Daily predictions for brighter satellites

Satellite Brightness Start Highest point End
(mag) Time Altitude Azimuth Time Altitude Azimuth Time Altitude Azimuth
Cosmos 292 Rocket 4.0 14:53:13 10° NNW 14:58:05 81° WSW 15:02:54 10° SSE
STARLINK-21 4.1 14:55:40 10° SSW 14:59:29 45° SE 15:03:20 10° NE
STARLINK-45 3.8 14:57:23 10° SSW 15:01:18 54° SE 15:05:14 10° NE
STARLINK-75 3.7 14:59:07 10° SSW 15:03:04 60° SE 15:07:02 10° NE
Okean 1 3.3 14:59:35 10° S 15:03:31 69° E 15:07:29 10° NNE
STARLINK-76 3.9 15:00:32 10° SSW 15:04:25 51° SE 15:08:20 10° NE
Cosmos 2026 Rocket 4.0 14:59:33 10° S 15:05:35 84° E 15:11:40 10° N
STARLINK 3.8 15:02:08 10° SSW 15:06:03 54° SE 15:09:59 10° NE
Cosmos 676 Rocket 4.0 15:01:24 10° S 15:06:33 78° ESE 15:11:44 10° NNE
Cosmos 1867 4.2 15:01:40 10° N 15:06:38 35° ENE 15:11:33 10° ESE
Cosmos 405 Rocket 4.4 15:05:40 10° NE 15:07:33 13° ENE 15:09:27 10° ESE
STARLINK-32 3.8 15:03:47 10° SSW 15:07:42 56° SE 15:11:39 10° NE
Gbstr 26 Del rocket 4.4 15:00:50 10° SW 15:08:35 81° NW 15:15:05 10° NE
STARLINK-40 3.7 15:05:25 10° SSW 15:09:21 59° SE 15:13:18 10° NE
STARLINK-44 3.7 15:07:03 10° SSW 15:11:00 61° SE 15:14:58 10° NE
Cosmos 1954 Rocket 4.0 15:06:07 10° SSW 15:11:15 82° ESE 15:16:27 10° NNE
IRS-1C Rocket 4.1 15:06:30 10° SSE 15:11:46 81° ENE 15:17:02 10° N
STARLINK-37 3.6 15:08:47 10° SW 15:12:46 69° SE 15:16:46 10° NE
H-2A R/B 2.5 15:09:13 10° SSE 15:12:52 73° ENE 15:16:33 10° N
Meteor 1-19 Rocket 4.3 15:08:24 10° S 15:13:46 56° E 15:19:05 10° NNE
STARLINK-36 3.6 15:10:13 10° SSW 15:14:11 67° SE 15:18:09 10° NE
BREEZE-M DEB (TANK) 1.7 15:12:03 10° NW 15:14:14 64° NE 15:17:06 10° SE
YAOGAN 6 3.9 15:12:12 10° ESE 15:14:49 20° ENE 15:17:27 10° NNE
STARLINK-41 3.6 15:11:57 10° SW 15:15:55 68° SE 15:19:50 11° NE
Cosmos 1441 Rocket 3.3 15:13:29 10° N 15:17:14 77° W 15:20:56 10° S
USA 267 4.2 15:12:06 10° E 15:17:20 26° NNE 15:22:32 10° NNW
STARLINK-64 3.5 15:13:36 10° SW 15:17:35 72° SE 15:21:25 11° NE
Cosmos 2297 3.7 15:12:52 10° NNW 15:18:34 85° ENE 15:24:12 10° SSE
Cosmos 1782 Rocket 3.5 15:14:42 10° N 15:19:03 78° E 15:23:21 10° S
CZ-4C R/B 1.9 15:14:24 10° SSW 15:19:04 70° ESE 15:24:26 10° NE
STARLINK-35 3.5 15:15:15 10° SW 15:19:15 77° SE 15:23:03 11° NE
OAO 3 Rocket 3.2 15:15:01 10° WNW 15:19:41 80° SSW 15:24:24 10° ESE
Genesis I 4.2 15:16:32 10° NW 15:20:15 50° WSW 15:23:55 10° S
STARLINK-51 3.5 15:16:55 10° SW 15:20:54 80° SE 15:24:39 12° NE
STARLINK-30 3.5 15:18:34 10° SW 15:22:34 83° SE 15:26:15 12° NE
SKYMED 2 3.8 15:18:37 10° NNE 15:22:49 47° E 15:26:59 10° S
AQUARIUS 4.2 15:18:30 10° SSE 15:23:00 89° W 15:27:30 10° NNW
STARLINK-33 3.5 15:20:11 10° SW 15:24:11 87° SE 15:27:48 13° NE
Cosmos 2084 Rocket 3.8 15:20:58 10° S 15:25:10 49° ESE 15:29:02 12° NE
Cosmos 1666 4.4 15:21:56 10° NNW 15:25:21 35° W 15:28:45 10° SSW
STARLINK-50 3.5 15:21:51 10° SW 15:25:52 90° NNW 15:29:25 13° NE
Cosmos 1140 Rocket 4.5 15:21:05 10° SW 15:25:59 46° WNW 15:30:56 10° N
Cosmos 1515 3.8 15:22:45 10° S 15:26:23 50° E 15:30:04 10° NNE
STARLINK 3.5 15:23:16 10° SW 15:27:17 82° SE 15:30:41 14° NE
STARLINK-56 3.5 15:25:11 10° SW 15:29:11 83° NW 15:32:37 14° NE
Shenzhou-11 Module 3.8 15:26:53 10° W 15:29:20 29° SW 15:31:45 10° SSE
Starlink (trailer) 3.6 15:26:50 10° SW 15:30:49 80° NW 15:34:12 14° NE
STARLINK-38 3.6 15:28:30 10° SW 15:32:30 76° NW 15:35:49 15° NE
Cosmos 1544 4.4 15:30:16 11° NNE 15:32:43 20° ENE 15:35:24 10° SE
STARLINK-65 3.7 15:30:02 10° SW 15:34:01 74° NW 15:37:16 15° NE
CZ-4 R/B 2.2 15:30:59 10° SE 15:34:14 26° ENE 15:37:30 10° NNE
Envisat 2.9 15:31:11 10° SSE 15:36:12 68° ENE 15:41:15 10° N
NOSS 2-1 (C) 4.1 15:35:19 10° S 15:38:27 27° ESE 15:39:38 22° E
STARLINK-69 3.9 15:35:11 10° SW 15:39:10 63° NW 15:42:14 16° NE
Cosmos 1417 Rocket 4.4 15:33:20 10° N 15:39:25 63° E 15:45:31 10° SSE
Okean 2 Rocket 3.2 15:35:06 10° N 15:39:30 53° E 15:43:54 10° SSE
Cosmos 2221 Rocket 3.8 15:35:05 10° S 15:39:33 75° W 15:43:59 10° N
Cosmos 1741 Rocket 4.1 15:35:38 10° S 15:40:44 55° ESE 15:45:44 11° NNE
STARLINK-66 3.9 15:36:48 10° SW 15:40:46 62° NW 15:43:46 17° NNE
Cosmos 1943 3.1 15:35:22 10° SSW 15:40:59 75° ESE 15:46:37 10° NNE
NOSS 2-1 (D) 3.9 15:38:51 10° S 15:42:07 30° ESE 15:43:13 24° E
Meteor 2-9 Rocket 4.3 15:37:34 10° N 15:43:18 58° E 15:48:51 10° SSE
Meteor 2-13 Rocket 4.4 15:38:45 10° S 15:44:47 81° E 15:50:53 10° N
STARLINK-70 4.1 15:41:43 10° WSW 15:45:38 54° NW 15:48:27 18° NNE
IRIDIUM 103 4.5 15:41:03 10° SSE 15:46:03 49° E 15:51:03 10° NNE
Cosmos 405 3.5 15:44:00 10° SSE 15:47:16 36° E 15:48:26 27° NE
STARLINK-68 4.2 15:43:35 10° WSW 15:47:29 49° NW 15:50:14 18° NNE
Sich 1 Rocket 4.0 15:43:33 10° NNW 15:47:53 63° W 15:52:13 10° S
STARLINK-58 4.2 15:45:10 10° WSW 15:49:04 49° NW 15:51:44 19° NNE
Cosmos 1975 2.7 15:45:13 10° N 15:49:14 90° SE 15:53:15 10° S
STARLINK-62 4.3 15:46:56 10° WSW 15:50:47 46° NW 15:53:25 19° NNE
OFEQ 5 4.3 15:50:07 39° ENE 15:51:01 85° SSE 15:53:44 10° WSW
CZ-3B R/B 2.0 15:48:23 10° SW 15:51:43 38° SSE 15:54:55 19° ESE
USA 81 4.4 15:46:55 10° SSE 15:51:51 43° E 15:56:49 10° NNE
STARLINK-63 4.3 15:48:30 10° WSW 15:52:22 46° NW 15:54:54 20° NNE
Lacrosse 5 3.3 15:48:16 10° WSW 15:52:50 33° NW 15:57:14 11° NNE
Cosmos 1674 Rocket 3.7 15:48:59 10° S 15:53:17 53° E 15:56:45 15° NNE
STARLINK-72 4.4 15:51:45 10° WSW 15:55:36 45° NW 15:57:58 21° NNE
Delta 2 Rocket 4.0 15:50:24 10° WNW 15:55:37 57° N 15:57:48 30° ENE
Cosmos 1850 Rocket 3.9 15:51:23 10° SSW 15:56:37 85° ESE 16:01:40 11° NNE
Meteor 1-12 Rocket 4.3 15:52:06 10° N 15:57:44 53° E 16:03:15 10° SSE
Cosmos 2369 Rocket 2.3 15:54:41 10° N 16:00:11 50° ENE 16:05:39 10° SE
Meteor 1-13 Rocket 4.1 15:56:44 10° S 16:02:20 73° E 16:07:51 10° NNE
H-2A R/B 1.7 16:01:45 10° SW 16:03:11 25° S 16:03:11 25° S
IRIDIUM 106 4.2 15:59:06 10° S 16:04:17 77° E 16:09:30 10° N
Okean 3 4.5 16:00:38 10° SSW 16:04:39 46° W 16:08:40 10° N
YAOGAN 1 2.6 16:01:03 10° SSE 16:05:14 53° ENE 16:09:27 10° N
Cosmos 1300 Rocket 3.3 16:02:36 10° N 16:06:55 80° E 16:11:14 10° S
Cosmos 1378 Rocket 3.5 16:04:24 10° S 16:08:35 56° E 16:10:00 37° NE
COSMO-SKYMED 1 3.8 16:06:41 10° N 16:10:46 42° WNW 16:14:51 10° SW
GPS 2-05 Rocket1 3.9 16:10:03 10° WNW 16:11:48 27° NW 16:11:48 27° NW
Meteor 1-23 Rocket 4.5 16:07:29 10° SSE 16:12:55 46° E 16:15:00 33° NE
Sakura Rocket 4.3 16:09:18 10° W 16:14:01 49° S 16:18:05 21° SE
Cosmos 1943 Rocket 2.0 16:09:22 10° NNW 16:15:00 86° ENE 16:20:32 10° SSE
Okean-O 4.4 16:14:42 10° SSW 16:18:42 33° W 16:22:43 10° NNW
ADEOS Rocket 3.6 16:22:32 32° ESE 16:22:32 32° ESE 16:26:46 10° SSE
Aureole 3 Rocket 3.4 16:18:54 10° NNW 16:21:57 47° W 16:25:38 10° S
CSL-04 Rocket 3.5 16:18:54 10° SSE 16:24:10 82° ENE 16:29:29 10° N
OAO 3 Copernicus 4.3 16:22:07 10° WNW 16:27:08 61° N 16:27:44 57° NE
NOSS 2-1 (E) 3.2 16:23:59 10° SW 16:27:14 68° WSW 16:27:14 68° WSW
Meteor 2-19 Rocket 4.3 16:28:35 10° S 16:34:39 74° E 16:37:38 32° NNE
Cosmos 1066 Rocket 4.2 16:32:18 10° S 16:38:03 64° E 16:38:28 62° ENE
USA 267 3.2 16:57:47 49° SSE 16:59:47 83° SW 17:06:21 10° NW
CZ-4 R/B 4.3 17:06:58 10° SW 17:09:14 15° W 17:11:30 10° WNW
NOSS 3-1 (C) 4.2 17:08:17 10° NNW 17:16:20 79° WSW 17:20:45 34° SSE
SEDSat Delta rocket 4.3 17:14:42 10° WSW 17:20:20 64° WSW 17:20:20 64° WSW
H-2A ROCKET BODY 4.4 17:23:10 10° SW 17:23:59 12° SSW 17:23:59 12° SSW
USA 229 DEB 4.2 17:20:41 10° NW 17:27:59 62° WSW 17:29:47 49° SSW
USA 229 4.2 17:20:47 10° NW 17:28:04 63° WSW 17:29:43 51° SSW
NOSS 3-1 (A) 4.3 17:25:52 10° NNW 17:32:20 64° NNW 17:32:20 64° NNW
CZ-3B R/B 3.7 17:40:01 10° WSW 17:41:39 23° WSW 17:41:39 23° WSW
ATLAS 3B CENTAUR R/B 4.0 17:43:52 10° WSW 17:51:19 62° S 17:51:19 62° S
